Weather History for Cozumel, Mexico

Change the Weather History Date:

Monday, February 25, 2013

  Actual Average Record
Temperature  
Mean Temperature 76 °F -  
Max Temperature 82 °F 83 °F 89 °F (2004)
Min Temperature 71 °F 70 °F 59 °F (2011)
Cooling Degree Days 12    
Growing Degree Days 26 (Base 50)    
Moisture  
Dew Point 63 °F    
Average Humidity 63    
Maximum Humidity 73    
Minimum Humidity 51    
Precipitation  
Precipitation 0.00 in - - ()
Sea Level Pressure  
Sea Level Pressure 29.76 in    
Wind  
Wind Speed 10 mph ()    
Max Wind Speed 75 mph    
Max Gust Speed 24 mph    
Visibility 7.6 miles    
Events      
Averages and records for this station are not official NWS values.
T = Trace of Precipitation, MM = Missing Value Source: Averaged Metar Reports

Daily Weather History Graph

Daily Weather History Graph

Search for Another Location

Airport:

Trip Planner

Search our weather history database for the weather conditions in past years. The results will help you decide how hot, cold, wet, or windy it might be!

Date:

Astronomy

Feb. 25, 2013 Rise Set
Actual Time 6:10 AM CST 5:51 PM CST
Civil Twilight 5:48 AM CST 6:13 PM CST
Nautical Twilight 5:22 AM CST 6:39 PM CST
Astronomical Twilight 4:56 AM CST 7:04 PM CST
Moon 5:55 PM CST (2/25) 5:45 AM CST (2/25)
Length of Visible Light 12h 25m
Length of Day
11h 40m
Full, 100% of the Moon is Illuminated
Feb 25
Full
Feb 25
Full
Mar 4
Last Quarter
Mar 11
New
Mar 19
First Quarter

Hourly Weather History & Observations

Time (CST) Temp. Heat Index Dew Point Humidity Pressure Visibility Wind Dir Wind Speed Gust Speed Precip Events Conditions
12:41 AM 73.4 °F - 64.4 °F 73% 29.81 in 7.0 mi SE 5.8 mph 17.3 mph N/A   Partly Cloudy
1:51 AM 73.4 °F - 62.6 °F 69% 29.79 in 7.0 mi SE 6.9 mph - N/A   Partly Cloudy
2:44 AM 73.4 °F - 60.8 °F 65% 29.80 in 7.0 mi SE 9.2 mph - N/A   Partly Cloudy
3:41 AM 71.6 °F - 62.6 °F 73% 29.77 in 7.0 mi SSE 8.1 mph - N/A   Partly Cloudy
4:45 AM 71.6 °F - 60.8 °F 69% 29.77 in 7.0 mi SE 8.1 mph 19.6 mph N/A   Partly Cloudy
5:48 AM 71.6 °F - 62.6 °F 73% 29.75 in 7.0 mi SE 8.1 mph - N/A   Partly Cloudy
6:40 AM 73.4 °F - 60.8 °F 65% 29.80 in 8.0 mi SE 8.1 mph - N/A   Scattered Clouds
7:40 AM 75.2 °F - 62.6 °F 65% 29.81 in 8.0 mi SE 15.0 mph - N/A   Scattered Clouds
8:41 AM 78.8 °F - 64.4 °F 61% 29.84 in 8.0 mi SE 10.4 mph 21.9 mph N/A   Scattered Clouds
9:42 AM 80.6 °F 81.8 °F 62.6 °F 54% 29.80 in 8.0 mi SE 17.3 mph - N/A   Mostly Cloudy
10:40 AM 82.4 °F 83.9 °F 64.4 °F 54% 29.78 in 8.0 mi SSE 20.7 mph - N/A   Mostly Cloudy
11:41 AM 80.6 °F 82.3 °F 64.4 °F 58% 29.75 in 8.0 mi SSE 12.7 mph 24.2 mph N/A   Mostly Cloudy
12:40 PM 82.4 °F 83.4 °F 62.6 °F 51% 29.75 in 8.0 mi SE 11.5 mph 23.0 mph N/A   Mostly Cloudy
1:40 PM 80.6 °F 81.8 °F 62.6 °F 54% 29.72 in 8.0 mi SSE 11.5 mph 24.2 mph N/A   Mostly Cloudy
2:42 PM 82.4 °F 83.4 °F 62.6 °F 51% 29.74 in 8.0 mi SSE 9.2 mph 21.9 mph N/A   Mostly Cloudy
3:40 PM 80.6 °F 81.8 °F 62.6 °F 54% 29.71 in 8.0 mi SE 8.1 mph 19.6 mph N/A   Scattered Clouds
4:40 PM 78.8 °F - 62.6 °F 57% 29.70 in 8.0 mi SE 8.1 mph 19.6 mph N/A   Scattered Clouds
5:40 PM 77.0 °F - 64.4 °F 65% 29.68 in 8.0 mi SE 8.1 mph - N/A   Scattered Clouds
6:40 PM 75.2 °F - 62.6 °F 65% 29.72 in 8.0 mi SE 9.2 mph - N/A   Scattered Clouds
7:40 PM 75.2 °F - 62.6 °F 65% 29.75 in 8.0 mi SE 10.4 mph - N/A   Scattered Clouds
8:40 PM 75.2 °F - 64.4 °F 69% 29.79 in 8.0 mi SE 8.1 mph - N/A   Scattered Clouds
9:48 PM 75.2 °F - 62.6 °F 65% 29.79 in 7.0 mi SE 6.9 mph - N/A   Partly Cloudy
10:44 PM 75.2 °F - 64.4 °F 69% 29.78 in 7.0 mi SE 74.8 mph - N/A   Scattered Clouds
11:43 PM 73.4 °F - 62.6 °F 69% 29.74 in 7.0 mi SE 8.1 mph - N/A   Scattered Clouds